星链-32228 (STARLINK-32228)

导读

STARLINK-32228是美国太空探索技术公司(SpaceX)于2024年8月12日发射的星链(Starlink)系列卫星,归属星链低轨卫星互联网星座。星链星座旨在为全球尤其基础设施匮乏地区提供高速低延迟宽带互联网服务,该卫星入轨后将和其他星链卫星组网,助力实现覆盖全球的卫星互联网接入能力。

Basic Information
目录编号:
60445
目录名称:
STARLINK-32228
国际标识:
2024-144W
轨道中心:
EARTH
卫星名称:
星链-32228 (STARLINK-32228)
卫星全名:
星链-32228 (STARLINK-32228)
卫星状态:
在轨 (已飞行753 天)
发射日期:
2024-08-12 UTC
国别 :
美国 (US)
星等 :
--
Orbit Information
数据来源 国际轨道数据 AOE轨道数据
星历时间 2026-09-04T08:40:17+0800
11小时前
查看轨道信息
2026-09-01T01:00:00+0800
3天前
查看轨道信息
半长轴 6840.867km 6840.821km
偏心率 0.0001592 0.0001121
轨道倾角 53.161° 53.157°
近地点辐角 104.113° 114.465°
升交点赤经 104.506° 120.023°
平近点角 256.005° 258.360°
近地点 461.64km 461.917km
远地点 463.82km 463.451km
周期 93.848分钟 93.847分钟
每日圈数 15.343912 15.344067
Detailed Information
卫星平台:
Starlink v2.0 mini
运营商:
太空探索技术公司
运营商所在国:
美国
制造商(研发单位):
太空探索技术公司
制造商所在国:
美国
使用方式:
暂无
Satellite Introduction
星链(Starlink)计划是由太空探索技术公司(SpaceX)提出的一个巨型低轨卫星互联网星座项目,计划在2019年至2024年间在太空搭建由约1.2万颗卫星组成的“星链”网络,其中1584颗将部署在地球上空550千米处的近地轨道,并从2020年开始工作。该卫星仍在工作。
2D Orbit Map
3D Orbit Map
Orbit Altitude Analysis Chart
Orbit Inclination Analysis Chart
Orbit Comprehensive Analysis Chart
View Comprehensive Chart
Conjunction Data List
Event ID Objects TCA Miss Dist (km) Collision Risk Probability Collision Risk Index (CRI) Action
CDM_260905-081306-044506-195221
2026-09-05T
08:13:27+0000
0.404 km
远距离
2.158266E-4 高风险 0.82
CDM_260905-231706-044506-824621
2026-09-05T
23:17:03+0000
1.036 km
极远距离
1.471714E-5 中风险 0.58
CDM_260904-220406-044506-265922
2026-09-04T
22:04:25+0000
1.609 km
极远距离
5.063496E-6 低风险 0.49
CDM_260827-214606-044506-195222
2026-08-27T
21:46:50+0000
1.752 km
极远距离
2.581617E-6 低风险 0.43
CDM_260905-063906-044506-195221
2026-09-05T
06:39:40+0000
1.850 km
极远距离
2.226795E-6 低风险 0.42
CDM_260906-005006-044506-824621
2026-09-06T
00:50:50+0000
2.016 km
极远距离
1.815668E-6 低风险 0.4
CDM_260903-030005-231106-044521
2026-09-03T
03:00:35+0000
2.233 km
极远距离
1.70511E-6 低风险 0.4
CDM_260903-003905-231106-044521
2026-09-03T
00:39:51+0000
2.637 km
极远距离
1.255218E-6 低风险 0.37
CDM_260905-130805-146706-044521
2026-09-05T
13:08:51+0000
2.933 km
极远距离
1.00643E-6 低风险 0.35
CDM_260829-174205-362606-044521
2026-08-29T
17:42:35+0000
2.552 km
极远距离
8.259666E-7 极低风险 0.33